AR731 Weather Reports


Display with metric or nautical units.
time (UTC)temp
F
wind
direction
speed
MPH
gust
MPH
rain 1hr
in
rain 24hr
in
rain mn
in
humidity
%
barometer
mb
20200329064607 44 113 2.0 0.0 0.00 0.00 0.00 98 992.7
20200329063100 44 123 2.0 0.0 0.00 0.00 0.00 98 992.4
20200329060114 44 99 1.0 0.0 0.00 0.00 0.00 98 993.3
20200329054616 44 118 2.0 0.0 0.00 0.00 0.00 98 993.3
20200329053049 43 92 3.0 0.0 0.00 0.00 0.00 98 993.5
20200329051507 40 105 1.0 0.0 0.00 0.00 0.00 98 994.0
20200329050214 39 113 0.0 0.0 0.00 0.00 0.41 97 994.0
20200329044506 40 113 0.0 0.0 0.00 0.00 0.41 97 993.9
20200329043052 40 115 0.0 0.0 0.00 0.00 0.41 97 993.9
20200329041510 42 109 1.0 0.0 0.00 0.00 0.41 97 994.1
20200329040032 42 94 1.0 0.0 0.00 0.00 0.41 97 994.1
20200329034652 43 92 1.0 0.0 0.00 0.00 0.41 97 994.3
20200329033108 43 157 2.0 0.0 0.00 0.00 0.41 97 994.9
20200329031622 43 96 2.0 0.0 0.00 0.00 0.41 97 994.9
20200329030044 43 111 2.0 0.0 0.00 0.00 0.41 97 995.3
20200329024608 43 67 2.0 0.0 0.00 0.00 0.41 97 995.3
20200329023049 43 126 2.0 0.0 0.00 0.00 0.41 97 997.0
20200329021908 43 142 2.0 0.0 0.00 0.00 0.40 97 997.0
20200329020037 43 138 5.0 0.0 0.00 0.00 0.33 97 997.0
20200329014630 42 123 8.0 0.0 0.00 0.00 0.26 97 995.3
20200329013122 42 99 10.0 0.0 0.00 0.00 0.26 97 995.2
20200329011508 42 128 9.0 0.0 0.00 0.00 0.26 97 995.9
20200329010229 42 30 8.0 0.0 0.00 0.00 0.25 97 995.9
20200329004647 42 107 8.0 0.0 0.00 0.00 0.25 97 996.4
20200329003100 42 47 6.0 0.0 0.00 0.00 0.25 97 997.3
20200329001740 42 65 5.0 0.0 0.00 0.00 0.25 97 997.6
20200329000120 42 46 5.0 0.0 0.00 0.00 0.25 97 997.3
20200328234536 42 85 4.0 0.0 0.00 0.00 0.25 96 998.1
20200328233105 42 84 7.0 0.0 0.00 0.00 0.25 96 998.1
20200328231616 42 61 5.0 0.0 0.00 0.00 0.25 96 998.6
20200328230155 42 113 6.0 0.0 0.00 0.00 0.25 96 999.0
20200328224713 43 54 4.0 0.0 0.00 0.00 0.16 96 999.5
20200328223104 43 65 3.0 0.0 0.00 0.00 0.16 96 1000.2
20200328221536 43 142 6.0 0.0 0.00 0.00 0.12 95 1000.9
20200328220004 43 70 6.0 0.0 0.00 0.00 0.10 95 1001.2
20200328214553 43 98 6.0 0.0 0.00 0.00 0.10 95 1001.2
20200328213105 44 126 6.0 0.0 0.00 0.00 0.10 95 1001.2
20200328211526 44 116 5.0 0.0 0.00 0.00 0.10 95 1001.3
20200328210126 44 115 5.0 0.0 0.00 0.00 0.10 95 1001.3
20200328204522 44 122 4.0 0.0 0.00 0.00 0.10 95 1001.4
20200328203206 44 94 6.0 0.0 0.00 0.00 0.10 95 1001.4
20200328201525 44 75 6.0 0.0 0.00 0.00 0.10 95 1002.2
20200328200140 44 13 5.0 0.0 0.00 0.00 0.10 96 1002.2
20200328194503 44 96 4.0 0.0 0.00 0.00 0.10 97 1004.0
20200328193107 43 127 4.0 0.0 0.00 0.00 0.09 97 1004.0
20200328191514 43 115 3.0 0.0 0.00 0.00 0.09 96 1005.1
20200328190242 43 121 2.0 0.0 0.00 0.00 0.09 96 1005.1
20200328184525 43 91 1.0 0.0 0.00 0.00 0.08 96 1005.9
20200328183138 43 36 0.0 0.0 0.00 0.00 0.07 96 1005.9
20200328181604 43 104 1.0 0.0 0.00 0.00 0.07 95 1006.5
20200328174639 44 93 3.0 0.0 0.00 0.00 0.07 93 1007.2
20200328173005 44 27 3.0 0.0 0.00 0.00 0.07 93 1005.4
20200328171705 44 116 4.0 0.0 0.00 0.00 0.07 93 1005.4
20200328170038 44 53 5.0 0.0 0.00 0.00 0.07 93 1005.4
20200328164609 44 120 4.0 0.0 0.00 0.00 0.07 93 1005.4
20200328163011 44 111 3.0 0.0 0.00 0.00 0.07 93 1005.8
20200328161556 43 104 3.0 0.0 0.00 0.00 0.07 93 1005.8
20200328160053 43 94 4.0 0.0 0.00 0.00 0.07 94 1006.5
20200328154616 43 67 4.0 0.0 0.00 0.00 0.07 95 1006.8
20200328153046 42 75 3.0 0.0 0.00 0.00 0.07 95 1007.1
20200328151533 42 65 4.0 0.0 0.00 0.00 0.07 94 1007.2
20200328150135 42 103 3.0 0.0 0.00 0.00 0.07 94 1007.2
20200328144515 42 81 2.0 0.0 0.00 0.00 0.07 95 1006.9
20200328141620 42 59 1.0 0.0 0.00 0.00 0.07 95 1006.9
20200328140004 42 76 2.0 0.0 0.00 0.00 0.07 96 1006.8
20200328134553 42 88 3.0 0.0 0.00 0.00 0.07 96 1006.8
20200328133050 42 49 2.0 0.0 0.00 0.00 0.07 96 1006.4
20200328131725 42 114 1.0 0.0 0.00 0.00 0.07 96 1006.6
20200328130159 41 102 1.0 0.0 0.00 0.00 0.07 96 1006.8
20200328124639 41 72 1.0 0.0 0.00 0.00 0.07 96 1007.0
20200328123111 41 65 2.0 0.0 0.00 0.00 0.06 96 1007.6
20200328120120 41 103 1.0 0.0 0.00 0.00 0.06 96 1007.6
20200328114512 41 44 1.0 0.0 0.00 0.00 0.06 96 1007.5
20200328113152 41 59 1.0 0.0 0.00 0.00 0.06 96 1007.5
20200328111605 41 147 1.0 0.0 0.00 0.00 0.06 96 1007.0
20200328110002 41 41 1.0 0.0 0.00 0.00 0.06 96 1007.0
20200328104559 41 64 1.0 0.0 0.00 0.00 0.06 96 1007.0
20200328103033 41 113 2.0 0.0 0.00 0.00 0.06 96 1006.4
20200328101700 41 67 1.0 0.0 0.00 0.00 0.06 96 1005.4
20200328100107 41 90 1.0 0.0 0.00 0.00 0.06 96 1006.5
20200328094723 41 86 0.0 0.0 0.00 0.00 0.06 96 1006.8
20200328093118 41 80 2.0 0.0 0.00 0.00 0.06 96 1006.9
20200328091513 41 100 2.0 0.0 0.00 0.00 0.06 96 1007.0
20200328090034 41 70 1.0 0.0 0.00 0.00 0.06 96 1007.0
20200328084614 42 59 2.0 0.0 0.00 0.00 0.06 96 1007.0
20200328083035 42 57 1.0 0.0 0.00 0.00 0.06 96 1008.2
20200328081640 42 73 0.0 0.0 0.00 0.00 0.06 96 1008.2
20200328080104 42 98 1.0 0.0 0.00 0.00 0.06 96 1008.5
20200328074529 42 53 1.0 0.0 0.00 0.00 0.06 96 1007.8
20200328073004 42 39 0.0 0.0 0.00 0.00 0.06 96 1008.0
20200328071730 42 103 1.0 0.0 0.00 0.00 0.06 96 1008.0
20200328070107 42 59 1.0 0.0 0.00 0.00 0.06 96 1008.1